Espace membre
Imprimable
Malmedy, 24/06/2018, BEL - Raid des Hautes Fagnes
Liste des rapports > 90km - Classement
Recherche: Page: [1]
123 Entrées
 
Les réclamations ne sont plus acceptées, les résultats sont considérés comme définitifs.
RangNrLicenceNomAgeIOCEquipeTempsTkmMoy.ScrLocalité
Vos photos grâce à Sportograf1.15010056352940WIJCKMAN Kristof41BELAPRES-BOKERS4:42:443:09 19.102WIEKEVORST
Vos photos grâce à Sportograf2.10510049800689DUBOIS Frederic44BEL4:49:513:14 18.634FEXHE LE HAUT CLOCHER
Vos photos grâce à Sportograf3.8610051010058BRUNO Vasco42BELDW BIKES4:50:043:14 18.625NEERPELT
Vos photos grâce à Sportograf4.6910027758754PETIT Gonzague42FRANPC4:51:103:15 18.557WERVICQ-SUD
Vos photos grâce à Sportograf5.19810065211363DEPONT Yves40BELROTWILD ZAES5:01:303:21 17.9117ARDOOIE
Vos photos grâce à Sportograf6.7310036522403WEBER Laurent44BELTEAM BIKE4LIFE-BMC5:04:313:24 17.7322REBECQ
Vos photos grâce à Sportograf7.80410062101909DE BOECK Bart47BELINDIVIDUEEL5:05:503:24 17.6625ASSE
Vos photos grâce à Sportograf8.18510024768831CLERET Pierre43FRAVELO CLUB SAINT LO PONT H5:06:003:24 17.6526BAUDRE
Vos photos grâce à Sportograf9.14210005464114PLANCKAERT Hans49BELROTWILD-ZAES TEAM5:06:543:25 17.6028IEPER
Vos photos grâce à Sportograf10.865GOEMAN Kenny42BELDIRTY BIKERS5:08:163:26 17.5231OPOETEREN
Vos photos grâce à Sportograf11.14610003426104APPERMANS Steve41BELRAF'S BIKE TEAM BORGLOON5:13:323:30 17.2235DIEPENBEEK
Vos photos grâce à Sportograf12.17110022919262BOUDEWIJNS Marcel45NLDTML DOMMELSTREEK5:14:153:30 17.1836GERWEN
Vos photos grâce à Sportograf13.13110053962292GEERT Van Kerckhove42BELSOLCAM-MAXLED-MONTBIKE5:14:323:30 17.1738MONTBRIO DEL CAMP
Vos photos grâce à Sportograf14.18310022747591VAN GORKUM Joost40NLDMB SPORTSWEAR / MTBARNHEM5:17:193:32 17.0242GENDT
Vos photos grâce à Sportograf15.8510076064855LUYPAERT Dieter40BELINDIVIDUEEL5:18:273:33 16.9643BUGGENHOUT
Vos photos grâce à Sportograf16.842DEHING Filip47BELSV VOSSEM5:20:153:34 16.8646X
Vos photos grâce à Sportograf17.470STERCKX Jan40BELMTB-P5:21:283:35 16.8049NOORDERWIJK
Vos photos grâce à Sportograf18.556VANELDEREN Dominic43BEL5:23:473:36 16.6853GUIGOVEN
Vos photos grâce à Sportograf19.625ROUGEMONT Laurent42FRAULTRA VTT MERICOURT5:30:263:41 16.3461MERICOURT
Vos photos grâce à Sportograf20.419BUELENS Johan49BEL5:30:463:41 16.3362TESSENDERLO
Vos photos grâce à Sportograf21.517CODDENS Peter41BELBRM CYCLING5:33:303:43 16.1963HEULE
Vos photos grâce à Sportograf22.12610025349114VANDEMEULEBROEKE Arnaud49FRAVTTSTAMANDLESEAUX5:35:433:44 16.0966HERGNIES
Vos photos grâce à Sportograf23.840VAN NOTEN Walter49BELKNOET5:35:593:44 16.0767LANGDORP
Vos photos grâce à Sportograf24.20216903033218VAN DAMME Patriek49BELDURMESPURTERS5:40:573:48 15.8478LOKEREN
Vos photos grâce à Sportograf25.12310016248187VERBEURGT Peter45BELINDIVIDUEEL5:47:303:52 15.5489LEUVEN
Vos photos grâce à Sportograf26.577CLYMANS Tom46BEL5:48:593:53 15.4792RAMSDONK
Vos photos grâce à Sportograf27.608PAESMANS Tom Paesmans44BELTEAM DEL SOL5:49:003:53 15.4793BEKKEVOORT
Vos photos grâce à Sportograf28.641OUDERMANS Thierri44BELTRIPLLEL BIKERS5:49:113:53 15.4794ZOERSEL
Vos photos grâce à Sportograf29.234LEPLAE Pascal47BELTEAM BIKE4LIFE5:50:483:54 15.3997NIVELLES
Vos photos grâce à Sportograf30.501VANLOFFELD Ronny43BEL5:52:413:56 15.31100BILZEN
Vos photos grâce à Sportograf31.83810495/96005078VAN DIJK Rick49NLDFCC DE PLAKPUNTERS5:53:403:56 15.27105BAARLO LB
Vos photos grâce à Sportograf32.337MARS B48NLD5:57:093:59 15.12111TILBURG
Vos photos grâce à Sportograf33.710VANSTREELS Tom44BELMTB P5:57:143:59 15.12112MOL
Vos photos grâce à Sportograf34.361WOUTERS Luc47BELMTBP5:57:143:59 15.12113OLEN
Vos photos grâce à Sportograf35.748TANT Hendrik45BEL5:58:494:00 15.05115ANZEGEM
Vos photos grâce à Sportograf36.610LEBESQUE Carl47BEL5:59:014:00 15.04116HAMME-MILLE
Vos photos grâce à Sportograf37.664VAN GILS Tom45BELRABC BRASSCHAAT5:59:084:00 15.04117BRASSCHAAT
Vos photos grâce à Sportograf38.627BIL Christian44BELWACKY RACERS6:00:244:01 14.98118KNOKKE-HEIST
Vos photos grâce à Sportograf39.441DEN HOUTER Tjeerd42NLDTEAM CUBESTOREVLAARDINGEN6:00:504:01 14.97120VLAARDINGEN
Vos photos grâce à Sportograf40.533VAN MIEGHEM Tom42BELMTB VAN HOYWEGHEN6:03:174:03 14.86126BAZEL
Vos photos grâce à Sportograf41.540KETELS Kurt40BEL6:06:084:05 14.75131OOSTAKKER
Vos photos grâce à Sportograf42.283LEYENS Pierre42BEL6:06:124:05 14.75132HARZÉ
Vos photos grâce à Sportograf43.18410071542534VAN STUIVENBERG Reinier45NLDTWC PIJNENBURG6:06:404:05 14.73133MOERGESTEL
Vos photos grâce à Sportograf44.20410063845481PLARD Christophe46FRASA VERDUN6:08:264:06 14.66136SAINT-MIHIEL
Vos photos grâce à Sportograf45.643MAES Jan Willem41BEL6:08:344:06 14.65137NETHEN
Vos photos grâce à Sportograf46.789DUBOIS Julien41FRA9@THETREE6:09:034:07 14.63140TRESSN
Vos photos grâce à Sportograf47.623MEIJER Olaf47NLDCYCLIST JEAN HABETS6:09:184:07 14.62141VALKENBURG AD GEUL
Vos photos grâce à Sportograf48.693DE NEEF Ulrich48BEL6:10:144:07 14.59145AALST
Vos photos grâce à Sportograf49.576PONCET Pascal45FRAVTT HAUTS DE FRANCE6:11:064:08 14.55146ORCHIES
Vos photos grâce à Sportograf50.640LEMPEREUR Grégory40BEL6:19:204:13 14.24160WÉPION
Vos photos grâce à Sportograf51.493DIERICKX Steven45BEL6:19:544:14 14.21161KNOKKE-HEIST
Vos photos grâce à Sportograf52.429LA ROOY Arjen44NLD6:21:574:15 14.14166ALKMAAR
Vos photos grâce à Sportograf53.758DEWAELE David43BELCRAZY WHEELS6:21:594:15 14.14167ANSEROEUL
Vos photos grâce à Sportograf54.516VAN DEN WOLLENBERG Nico48NLD6:24:324:17 14.04175HILVERSUM
Vos photos grâce à Sportograf55.349LENAERTS Koen48BELMTB NO EXCUSE6:24:574:17 14.03177LILLE
Vos photos grâce à Sportograf56.334BAUTE Jeroen44BEL6:25:424:18 14.00179ADEGEM
Vos photos grâce à Sportograf57.364CRAPS Peter41BEL6:28:344:20 13.90185OVERIJSE
Vos photos grâce à Sportograf58.375BRUYNINCKX Geert43BELRILLAARSE BIKERS6:30:254:21 13.83192RILLAAR
Vos photos grâce à Sportograf59.296VAN HOOF Dave41BEL6:30:394:21 13.82194LAAKDAL
Vos photos grâce à Sportograf60.788DUPONT Aymeric42FRA6:33:234:23 13.73199ANSTAING
Vos photos grâce à Sportograf61.859NED19720319PEETERS Harrie46NLDMTB BAARLO6:34:464:24 13.68202VENLO
Vos photos grâce à Sportograf62.762VREVEN Jimmy45BELMTB GENT6:35:354:24 13.65204HOOGSTRATEN
Vos photos grâce à Sportograf63.754MICHEL Jérôme44BELMALMEDY MOUNTAINBIKE TEAM6:41:134:28 13.46210MALMEDY
Vos photos grâce à Sportograf64.16310022918757ALMAR Mager44NLDMTBARNHEM6:41:204:28 13.46211VORDEN
Vos photos grâce à Sportograf65.649MOLLINK Sjors43NLDWERKENDLEREN RACING TEAM6:44:094:30 13.36216ALMELO
Vos photos grâce à Sportograf66.469SOMJA José-Emmanuel41BELCLUB CYCLISTE MANAIHANT6:44:114:30 13.36217BATTICE
Vos photos grâce à Sportograf67.583VEKEMANS Tim40BELMTBP6:44:374:30 13.35219HERENTALS
Vos photos grâce à Sportograf68.768VAN MOOTER Patrick48BELMOUNTAINFIGHTERS6:48:524:33 13.21227TREMELO
Vos photos grâce à Sportograf69.346CORNELIS Kris47BEL6:54:304:37 13.03239LIEDEKERKE
Vos photos grâce à Sportograf70.736KOKS Maarten41NLD6:54:464:37 13.02241DRUNEN
Vos photos grâce à Sportograf71.495DE MEY Yves40BEL6:55:064:37 13.01243WESTMALLE
Vos photos grâce à Sportograf72.534LEEUWEN VAN Janw49NLD6:56:214:38 12.97245ROZENBURG
Vos photos grâce à Sportograf73.569VANASSCHE Davy40BEL6:57:184:39 12.94246OOSTROZEBEKE
Vos photos grâce à Sportograf74.505SNOECK Davy45BEL2FAST6:58:054:39 12.92247KIELDRECHT
Vos photos grâce à Sportograf75.783SERGEANT Gregory40BEL6:59:054:40 12.89251GENT
Vos photos grâce à Sportograf76.549GEETS Jean Michel45BELIBA VTT6:59:484:40 12.86253COUTHUIN
Vos photos grâce à Sportograf77.823VAN CUTSEM Stefan43BEL7:00:494:41 12.83255
Vos photos grâce à Sportograf78.491DELHEZ Christophe45BEL7:01:004:41 12.83256JALHAY
Vos photos grâce à Sportograf79.527HEEMERYCK Emmanuel40BEL7:06:154:45 12.67265OOSTNIEUWKERKE
Vos photos grâce à Sportograf80.691FALISE Christian42BELDE RAPTE7:09:394:47 12.57267HAASRODE
Vos photos grâce à Sportograf81.807BEFFORT Thierry48LUX7:18:364:53 12.31277LUXEMBOURG
Vos photos grâce à Sportograf82.243SCHOONBROODT Cédric40BEL7:20:384:54 12.26282SART-LEZ-SPA
Vos photos grâce à Sportograf83.253VANHAMME Ronald46BELGAAAZZZ BIKERS7:20:504:54 12.25283KONINGSHOOIKT
Vos photos grâce à Sportograf84.669VOS David46BEL7:23:234:56 12.18287WILSELE
Vos photos grâce à Sportograf85.456MONPROFIT Steven44BEL7:24:274:57 12.15288LOCHRISTI
Vos photos grâce à Sportograf86.616VAN DER MEER Jurie43NLD7:25:254:57 12.12291WILLEMSTAD
Vos photos grâce à Sportograf87.461VRANKEN Vital40BEL7:27:474:59 12.06296MALMEDY
Vos photos grâce à Sportograf88.779CHAMBON Robert47NLD7:34:435:04 11.88307
Vos photos grâce à Sportograf89.652GERT Vandecauter43BELBLUE RIDERS7:38:395:06 11.77313OPVELP
Vos photos grâce à Sportograf90.563MARTENS Erwin45BEL7:38:545:06 11.77317VOSSELAAR
Vos photos grâce à Sportograf91.703SMIT Jean-Paul45NLDMBC NOORDBIKERS7:42:355:09 11.67320HOOFDDORP
Vos photos grâce à Sportograf92.276MUELLER Axel43DEUTV HOCHDORF7:43:355:10 11.65321HOCHDORF
Vos photos grâce à Sportograf93.713KEESJAN Van Den Herik47NLD7:49:035:13 11.51328WELLERLOOI
Vos photos grâce à Sportograf94.778DASSONVILLE Christophe44FRA7:51:355:15 11.45330TOURCOING
Vos photos grâce à Sportograf95.776235132BONNIER Laurent41FRATEAM VTT ATTICHES7:51:365:15 11.45331LOMME
Vos photos grâce à Sportograf96.387RAGÉ Frédéric46BEL7:53:075:16 11.41333LAMBUSART
Vos photos grâce à Sportograf97.521POUCET Olivier43BEL7:53:085:16 11.41334AISEMONT
Vos photos grâce à Sportograf98.356VAN DEN EECKHOUDT Gert41BEL7:56:375:18 11.33336MEERBEKE
Vos photos grâce à Sportograf99.256GUILLOT Laurent48FRACYCLO CLUB DE WAVRIN8:01:095:21 11.22339WAVRIN
Vos photos grâce à Sportograf100.343DEN OUDEN Marcel48NLD8:04:015:23 11.16343HOUTEN
Vos photos grâce à Sportograf101.786VAN SAET Mark47BEL8:13:275:29 10.94347KAPELLEN
Vos photos grâce à Sportograf102.621LEROY Stephen45BEL8:21:515:35 10.76353OOSTKAMP
Vos photos grâce à Sportograf103.458COUPÉ Maarten41BELMUNTE CYCLING TEAM8:25:435:38 10.68356SCHELDERODE
Vos photos grâce à Sportograf104.836VAN LAER Filip44BEL8:41:515:48 10.35361TREMELO
Vos photos grâce à SportografDSQ512KALIS Perry47NLD6:19:22VLAARDINGEN
Vos photos grâce à SportografDSQ438DE CRUYENAERE Stephane45BEL7:35:42LEMBEEK
Vos photos grâce à SportografDNF6010014108127ALOFS Jean-Marie49BELTEAM BIKE4LIFE-BMCHERVE
Vos photos grâce à SportografDNF588BOOY Tom40BELGISTEL
Vos photos grâce à SportografDNF607BRUYNEEL Emmanuel43BELEXTREAM TEAMELSEGEM
Vos photos grâce à SportografDNF14110003594640DECLERCQ Wouter43BELTRUST MTB TEAM VZWRUDDERVOORDE
Vos photos grâce à SportografDNF326DUEZ Guillaume42FRAARMENTIÉRES
Vos photos grâce à SportografDNF694GENTEN Frank45BELGLOUMS VTTWAIMES
Vos photos grâce à SportografDNF536HERMANS Yves42BELHERENTHOUT
Vos photos grâce à SportografDNF401HOLWERDA Ruurd40NLDKOOG AAN DE ZAAN
Vos photos grâce à SportografDNF249HUIDEKOPER Rick47NLDEGCHEL
Vos photos grâce à SportografDNF451JEURISSEN Geert41BELTONGEREN
Vos photos grâce à SportografDNF242KERREMANS Sven44BELMECHELEN
Vos photos grâce à SportografDNF22210016247480NOPPE Bas43BELTEAM HILAIREGITS
Vos photos grâce à SportografDNF440SERGE Verdaasdonk48NLDTILBURG
Vos photos grâce à SportografDNF17510073455151VAN DEN BEEMD Johan44NLDCYCLOTEAMSINT WILLEBRORD
Vos photos grâce à SportografDNF494VAN DER VEGT Giacomo40NLDWARNSVELD
Vos photos grâce à SportografDNF21900000177702VAN HEERTUM Bas47NLDBAKKER RACING TEAMST MICHIELSGESTEL
Vos photos grâce à SportografDNF10310036114292VERTONGEN Jo41BELMTB OVERIJSEOVERIJSE
DNF: abandon; DSQ: disqualifié; Vitesse en km/h
Page: [1]